SCP
-0 -0 0 0 0 0 0 0 0 0 -0 -0 -0 -0 -0 -0 -0 -0 -0 0 -0 -0 -0 -0 -0 -0 -0 -0 -0 0 -0 -0 0 0 0 0 0 -0 -0 -0 -0 0 -0
-0 -0 -0 0 -0 0 -0 -0 0 -0 -0 -0 -0 -0 -0 -0 -0 0 0 0 -0 -0 -0 -0 -0 -0 -0 -0 0 0 0 0 0 0 0 0 0 0 -0 -0 0 0 0
-0 -0 -0 -0 -0 0 0 -0 -0 -0 -0 -0 -0 -0 -0 -0 -0 -0 0 -0 -0 -0 -0 -0 -0 -0 -0 0 0 0 0 0 0 0 0 0 -0 0 0 0 0 0 0
0 0 0 -0 -0 -0 -0 -0 -0 -0 -0 -0 -0 -0 -0 -0 -0 -0 -0 -0 -0 -0 -0 0 0 0 0 0 0 0 0 0 0 0 0 -0 0 0 0 0 0 0 0
0 0 0 -0 -0 -0 -0 -0 -0 -0 -0 -0 -0 -0 -0 -0 -0 -0 -0 0 0 0 0 0 0 -0 -0 -0 0 0 0 0 0 0 0 0 0 -0 0 0 0 0 0
0 0 0 -0 -0 -0 -0 -0 -0 -0 -0 -0 -0 -0 -0 0 0 -0 0 0 0 -0 -0 -0 -0 -0 -0 -0 -0 -0 -0 -0 -0 -0 -0 -0 0 0 0 0 0 0 0
0 0 0 -0 -0 -0 -0 -0 -0 -0 -0 -0 -0 -0 -0 -0 -0 0 0 0 -0 -0 -0 -0 -0 -0 -0 -0 -0 -0 -0 -0 -0 -0 -0 -0 0 -0 0 0 0 0 0
0 0 0 0 -0 -0 -0 -0 -0 -0 -0 -0 -0 -0 -0 -0 -0 -0 0 -0 -0 -0 -0 -0 -0 -0 -0 -0 -0 -0 -0 -0 -0 -0 -0 0 -0 0 -0 0 0 0 0
0 0 0 0 0 -0 -0 -0 -0 -0 -0 -0 -0 -0 -0 -0 -0 0 -0 -0 -0 -0 -0 -0 -0 -0 -0 -0 -0 -0 -0 -0 0 0 0 0 0 0 -0 0 0 0 0
0 0 0 0 0 0 0 -0 -0 -0 -0 -0 -0 -0 0 0 0 0 0 -0 -0 -0 -0 -0 -0 -0 -0 -0 -0 -0 -0 0 0 0 0 0 0 0 0 -0 0 0 0
0 0 0 0 0 0 0 0 0 -0 -0 -0 -0 -0 0 0 0 0 -0 -0 -0 -0 -0 -0 -0 -0 -0 -0 -0 -0 -0 0 0 0 0 0 0 0 0 0 0 0 0
0 0 0 0 0 0 0 0 0 0 0 0 0 0 0 0 0 0 -0 -0 -0 -0 -0 -0 -0 0 0 0 0 0 0 0 0 0 0 0 0 0 0 0 0 0 0
0 0 0 0 0 0 0 0 0 0 0 0 0 0 0 0 0 0 0 0 0 0 0 0 0 0 0 0 0 0 0 0 0 0 0 0 0 0 0 0 0 0 0
0 0 0 0 0 0 0 0 0 0 0 0 0 0 0 0 0 0 0 0 0 0 0 0 0 0 0 0 0 0 0 0 0 0 0 0 0 0 0 0 0 0 0
0 0 0 0 0 0 0 0 0 0 0 0 0 0 0 0 0 0 0 0 0 0 0 0 0 0 0 0 0 0 0 0 0 0 0 0 0 0 0 0 0 0 0
0 0 0 0 0 0 0 0 0 0 0 0 0 0 0 0 0 0 0 0 0 0 0 0 0 0 0 0 0 0 0 0 0 0 0 0 0 0 0 0 0 0 0
0 0 0 0 0 0 0 0 0 0 0 0 0 0 0 0 0 0 0 0 0 0 0 0 0 0 0 0 0 0 0 0 0 0 0 0 0 0 0 0 0 0 0
0 0 0 0 0 0 0 0 0 0 0 0 0 0 0 0 0 0 0 0 0 0 0 0 0 0 0 0 0 0 0 0 0 0 0 0 0 0 0 0 0 0 0
0 0 0 0 0 0 0 0 0 0 0 0 0 0 0 0 0 0 0 0 0 0 0 0 0 0 0 0 0 0 0 0 0 0 0 0 0 0 0 0 0 0 0
0 0 0 0 0 0 0 0 0 0 0 0 0 0 0 0 0 0 0 0 0 0 0 0 0 0 0 0 0 0 0 0 0 0 0 0 0 0 0 0 0 0 0
0 0 0 0 0 0 0 0 0 0 0 0 0 0 0 0 0 0 0 0 0 0 0 0 0 0 0 0 0 0 0 0 0 0 0 0 0 0 0 0 0 0 0
0 0 0 0 0 0 0 0 0 0 0 0 0 0 0 0 0 0 0 0 0 0 0 0 0 0 0 0 0 0 0 0 0 0 0 0 0 0 0 0 0 0 0
0 0 0 0 0 0 0 0 0 0 0 0 0 0 0 0 0 0 0 0 0 0 0 0 0 0 0 0 0 0 0 0 0 0 0 0 0 0 0 0 0 0 0
0 0 0 0 0 0 0 0 0 0 0 0 0 0 0 0 0 0 0 0 0 0 0 0 0 0 0 0 0 0 0 0 0 0 0 0 0 0 0 0 0 0 0
0 0 0 0 0 0 0 0 0 0 0 0 0 0 0 0 0 0 0 0 0 0 0 0 0 0 0 0 0 0 0 0 0 0 0 0 0 0 0 0 0 0 0
0 0 0 0 0 0 0 0 0 0 0 0 0 0 0 0 0 0 0 0 0 0 0 0 0 0 0 0 0 0 0 0 0 0 0 0 0 0 0 0 0 0 0
Wind_Speed_500mb
36 26 31 28 27 23 22 24 26 25 23 20 16 17 23 21 20 22 26 27 28 30 29 28 29 29 29 28 27 26 25 26 26 27 29 30 29 28 27 26 25 23 23
37 31 32 28 27 21 17 25 25 24 26 24 17 18 24 23 24 25 26 27 27 26 26 27 27 27 26 25 23 21 22 23 25 25 26 28 29 29 27 25 24 23 22
37 37 34 28 24 13 15 29 29 24 30 26 18 17 19 19 23 25 25 25 25 26 27 27 27 27 25 22 19 17 18 21 23 25 26 26 27 28 28 26 24 23 21
38 39 35 31 25 18 24 34 31 29 33 24 12 14 14 17 22 23 25 26 26 26 27 26 26 25 23 21 18 16 16 18 21 23 25 24 25 28 31 29 25 23 23
40 38 34 31 27 24 27 30 31 35 30 18 8 12 13 18 23 24 24 23 24 24 23 23 23 22 20 18 15 13 12 14 17 19 22 22 25 28 34 33 29 25 21
40 39 34 31 28 26 28 32 33 29 21 7 3 7 13 16 18 21 21 21 20 22 25 26 28 29 28 26 22 16 16 17 20 22 23 22 24 30 35 38 37 32 25
41 40 35 31 29 26 25 24 22 18 11 6 5 11 14 15 17 18 19 20 23 25 27 28 29 30 31 31 31 28 25 23 22 23 23 24 25 26 30 35 36 34 33
45 43 36 31 28 27 24 21 18 15 12 10 13 15 16 16 16 17 20 23 25 27 27 26 25 26 27 27 26 25 23 23 22 20 21 22 23 25 28 33 35 34 33
44 44 38 32 29 27 22 20 18 16 14 16 17 17 17 17 18 21 24 25 25 23 22 21 22 23 24 23 23 22 22 22 22 21 23 25 25 25 26 30 34 36 37
44 43 38 33 28 25 21 20 18 19 20 20 20 18 17 19 22 24 23 21 19 17 17 18 18 20 21 18 18 19 23 19 19 20 20 24 28 30 30 29 31 35 36
44 42 38 33 28 23 22 22 23 24 24 22 20 18 21 22 22 21 18 15 14 13 14 13 12 14 17 19 21 23 23 23 24 26 25 24 28 32 33 31 32 34 38
48 48 39 33 28 25 24 25 27 26 24 21 19 19 21 20 18 15 12 10 10 11 12 11 14 18 22 25 27 28 28 26 24 30 30 22 22 27 30 31 32 33 34
47 49 42 34 30 26 28 28 28 25 22 19 17 19 19 17 14 11 7 6 7 8 14 19 21 25 30 35 33 35 32 30 33 31 27 22 21 20 23 28 35 32 31
50 47 39 33 33 27 29 28 26 23 20 19 17 17 17 15 11 8 3 3 9 12 20 25 27 32 38 39 37 33 30 28 26 26 25 23 20 23 23 28 26 27 29
47 46 41 32 37 29 30 29 25 21 19 18 16 15 15 11 10 7 2 5 9 15 19 27 29 34 37 32 27 26 25 26 26 27 25 21 20 22 16 14 20 23 27
45 44 40 34 33 29 31 28 24 21 18 16 14 16 18 15 13 11 7 8 13 18 21 26 27 32 30 24 20 20 23 27 26 24 18 15 15 13 13 20 28 28 31
46 44 41 35 29 30 28 24 20 19 18 19 18 18 14 12 11 10 11 16 20 22 26 26 29 29 21 17 18 19 24 27 24 16 15 12 10 13 16 23 25 28 31
48 47 42 41 33 31 28 26 31 29 23 20 20 19 18 17 17 17 19 22 26 30 29 28 24 20 19 19 18 21 26 22 18 13 12 12 13 15 20 27 33 33 32
48 47 43 42 38 37 37 36 35 31 30 25 26 23 22 20 21 22 25 27 32 31 27 25 25 21 17 17 21 25 19 16 13 11 12 14 20 25 28 29 31 30 31
44 42 41 41 41 45 44 40 35 35 32 31 28 29 26 27 28 30 31 32 32 27 23 18 15 18 23 25 23 24 17 13 12 6 14 19 22 26 28 31 30 27 30
47 46 44 44 46 47 46 42 39 38 36 36 32 33 34 33 32 30 29 25 17 15 15 14 16 20 23 24 24 20 13 17 17 15 22 21 28 33 28 23 23 23 24
55 54 48 51 56 48 45 42 40 40 39 38 38 38 34 31 31 25 20 17 12 7 13 15 23 30 33 31 26 17 9 10 16 26 18 25 37 28 24 25 25 24 28
60 54 55 54 61 58 53 45 47 46 44 43 43 37 30 26 17 18 11 2 4 10 20 29 33 34 30 26 20 12 8 6 24 15 17 23 34 27 26 28 21 28 34
64 60 60 60 59 58 55 56 56 54 55 50 40 36 26 17 13 9 10 11 15 30 35 42 35 29 26 22 18 14 10 13 12 14 17 24 32 31 21 29 23 41 28
60 63 62 59 61 60 60 63 64 62 57 51 34 23 24 20 13 17 23 28 32 38 32 24 26 27 28 26 23 15 11 11 13 16 27 42 32 29 25 34 32 41 39
60 56 52 55 58 59 56 58 52 48 36 38 31 20 11 11 16 21 27 23 17 19 20 21 22 23 23 22 20 20 19 17 20 21 28 40 40 31 26 36 33 41 56
Wind_Direction_500mb
160 160 153 153 149 147 147 153 152 149 152 140 117 63 51 61 67 74 80 84 82 78 79 80 79 76 74 75 75 74 72 68 63 62 55 50 44 39 37 34 30 27 22
151 151 150 158 151 150 163 168 163 158 152 140 111 54 45 57 77 86 87 86 83 81 79 78 75 73 71 69 68 62 58 56 53 52 51 43 36 32 27 22 21 18 16
154 152 151 155 150 139 157 167 160 151 151 139 108 60 45 64 82 88 87 85 82 76 71 68 66 64 63 62 64 61 52 41 37 36 33 31 29 23 15 9 6 5 2
159 156 156 157 150 122 125 147 151 149 149 138 109 56 55 78 94 90 85 80 76 73 70 68 65 63 62 61 58 55 47 41 27 25 24 26 20 16 11 4 354 350 350
162 160 156 157 153 134 126 138 144 148 146 132 59 40 66 81 86 87 79 78 76 75 71 65 62 60 59 56 54 58 45 36 26 23 21 37 38 25 22 16 8 356 343
166 164 159 160 159 149 133 134 142 146 149 142 32 53 93 92 88 89 84 82 77 71 69 68 67 65 59 55 51 53 48 39 38 38 44 45 40 29 19 13 10 6 359
171 168 164 163 167 164 159 157 161 169 186 198 152 124 113 105 98 92 90 87 85 84 80 77 74 68 63 61 60 59 53 46 39 39 38 34 30 26 18 8 3 359 1
180 173 171 168 170 174 173 174 180 186 187 172 145 133 120 112 106 102 97 93 90 85 79 74 68 59 51 48 45 41 36 31 22 14 14 13 12 8 6 358 356 353 348
180 176 175 172 173 177 179 183 186 180 170 157 148 139 133 127 118 108 101 97 91 82 74 67 58 48 41 38 32 25 14 7 7 3 357 353 351 351 352 347 346 346 345
180 180 178 176 176 179 182 181 179 171 164 157 150 146 137 131 121 114 110 105 97 80 65 57 48 39 34 27 18 1 355 352 350 349 348 346 344 339 338 341 339 338 339
183 185 183 184 185 187 182 174 167 164 162 158 155 143 137 133 129 125 120 108 98 73 59 49 33 19 10 0 349 343 340 341 332 331 325 328 329 332 332 337 334 331 329
186 186 189 190 194 190 180 171 166 163 160 159 155 149 147 146 142 132 116 93 78 58 34 7 357 347 342 339 334 332 331 329 321 318 324 308 315 317 326 326 314 319 324
186 185 190 193 191 186 179 175 169 165 163 160 159 157 159 158 153 142 126 94 38 13 354 338 333 331 333 328 327 331 326 319 319 322 332 314 305 312 315 322 317 319 320
181 184 183 186 186 178 180 177 174 170 171 170 164 166 172 169 164 158 140 24 354 339 328 325 322 326 327 322 322 329 328 323 320 317 319 316 306 302 316 321 329 326 324
181 182 184 183 182 178 176 179 179 173 169 167 169 173 173 180 186 196 246 310 317 320 316 309 313 321 324 328 331 334 326 322 323 319 319 311 295 304 318 328 327 339 348
187 184 183 182 180 183 180 179 174 169 174 175 177 180 193 201 208 233 257 284 288 297 301 307 314 318 324 330 335 337 327 325 325 318 326 324 315 313 306 312 318 318 323
191 191 196 189 184 182 178 176 186 184 182 191 195 197 201 202 213 238 265 278 287 289 293 305 310 313 320 327 336 334 330 330 340 323 311 305 293 295 299 314 319 318 318
195 199 201 196 193 186 175 190 194 199 205 199 197 202 210 224 246 264 274 287 288 291 301 308 309 309 313 319 334 334 327 323 322 321 311 297 298 306 312 318 319 318 323
195 194 199 201 199 190 193 199 204 202 201 200 207 218 228 241 257 271 281 292 293 288 292 291 294 293 290 298 318 330 316 302 294 303 300 309 316 317 322 328 327 324 313
200 201 197 201 197 194 201 203 206 208 214 212 222 227 237 248 260 275 282 286 284 277 272 270 276 292 303 314 324 327 305 287 270 358 351 339 333 339 332 327 329 333 329
205 205 206 206 202 204 208 210 215 221 219 223 228 241 245 253 263 263 269 271 273 268 265 284 309 312 311 322 333 334 303 288 247 317 337 343 339 343 342 341 343 348 352
204 204 207 207 203 207 214 218 218 221 226 230 235 239 241 245 247 242 243 236 234 289 321 328 336 339 338 340 342 336 297 280 243 304 309 338 348 350 349 355 354 356 351
204 201 204 200 202 207 215 214 216 224 228 227 229 223 217 214 197 201 181 119 36 354 343 344 340 339 345 353 355 358 314 294 309 288 285 333 349 352 352 355 351 350 338
201 204 204 209 203 205 213 220 222 226 224 220 209 203 190 163 124 91 88 13 6 335 329 323 325 337 345 354 1 1 340 311 326 316 308 333 358 355 354 353 336 341 338
202 204 204 205 208 209 218 219 221 222 213 200 184 125 115 111 81 353 325 305 299 306 320 340 346 345 348 354 3 3 343 325 323 314 320 333 354 360 346 350 343 344 343
185 192 195 203 206 207 212 209 201 195 156 138 129 146 175 228 261 281 299 313 334 341 346 344 348 348 349 354 359 3 6 2 346 348 334 335 343 356 346 344 341 342 341
Wind_Speed_850mb
36 26 31 28 27 23 22 24 26 25 23 20 16 17 23 21 20 22 26 27 28 30 29 28 29 29 29 28 27 26 25 26 26 27 29 30 29 28 27 26 25 23 23
37 31 32 28 27 21 17 25 25 24 26 24 17 18 24 23 24 25 26 27 27 26 26 27 27 27 26 25 23 21 22 23 25 25 26 28 29 29 27 25 24 23 22
37 37 34 28 24 13 15 29 29 24 30 26 18 17 19 19 23 25 25 25 25 26 27 27 27 27 25 22 19 17 18 21 23 25 26 26 27 28 28 26 24 23 21
38 39 35 31 25 18 24 34 31 29 33 24 12 14 14 17 22 23 25 26 26 26 27 26 26 25 23 21 18 16 16 18 21 23 25 24 25 28 31 29 25 23 23
40 38 34 31 27 24 27 30 31 35 30 18 8 12 13 18 23 24 24 23 24 24 23 23 23 22 20 18 15 13 12 14 17 19 22 22 25 28 34 33 29 25 21
40 39 34 31 28 26 28 32 33 29 21 7 3 7 13 16 18 21 21 21 20 22 25 26 28 29 28 26 22 16 16 17 20 22 23 22 24 30 35 38 37 32 25
41 40 35 31 29 26 25 24 22 18 11 6 5 11 14 15 17 18 19 20 23 25 27 28 29 30 31 31 31 28 25 23 22 23 23 24 25 26 30 35 36 34 33
45 43 36 31 28 27 24 21 18 15 12 10 13 15 16 16 16 17 20 23 25 27 27 26 25 26 27 27 26 25 23 23 22 20 21 22 23 25 28 33 35 34 33
44 44 38 32 29 27 22 20 18 16 14 16 17 17 17 17 18 21 24 25 25 23 22 21 22 23 24 23 23 22 22 22 22 21 23 25 25 25 26 30 34 36 37
44 43 38 33 28 25 21 20 18 19 20 20 20 18 17 19 22 24 23 21 19 17 17 18 18 20 21 18 18 19 23 19 19 20 20 24 28 30 30 29 31 35 36
44 42 38 33 28 23 22 22 23 24 24 22 20 18 21 22 22 21 18 15 14 13 14 13 12 14 17 19 21 23 23 23 24 26 25 24 28 32 33 31 32 34 38
48 48 39 33 28 25 24 25 27 26 24 21 19 19 21 20 18 15 12 10 10 11 12 11 14 18 22 25 27 28 28 26 24 30 30 22 22 27 30 31 32 33 34
47 49 42 34 30 26 28 28 28 25 22 19 17 19 19 17 14 11 7 6 7 8 14 19 21 25 30 35 33 35 32 30 33 31 27 22 21 20 23 28 35 32 31
50 47 39 33 33 27 29 28 26 23 20 19 17 17 17 15 11 8 3 3 9 12 20 25 27 32 38 39 37 33 30 28 26 26 25 23 20 23 23 28 26 27 29
47 46 41 32 37 29 30 29 25 21 19 18 16 15 15 11 10 7 2 5 9 15 19 27 29 34 37 32 27 26 25 26 26 27 25 21 20 22 16 14 20 23 27
45 44 40 34 33 29 31 28 24 21 18 16 14 16 18 15 13 11 7 8 13 18 21 26 27 32 30 24 20 20 23 27 26 24 18 15 15 13 13 20 28 28 31
46 44 41 35 29 30 28 24 20 19 18 19 18 18 14 12 11 10 11 16 20 22 26 26 29 29 21 17 18 19 24 27 24 16 15 12 10 13 16 23 25 28 31
48 47 42 41 33 31 28 26 31 29 23 20 20 19 18 17 17 17 19 22 26 30 29 28 24 20 19 19 18 21 26 22 18 13 12 12 13 15 20 27 33 33 32
48 47 43 42 38 37 37 36 35 31 30 25 26 23 22 20 21 22 25 27 32 31 27 25 25 21 17 17 21 25 19 16 13 11 12 14 20 25 28 29 31 30 31
44 42 41 41 41 45 44 40 35 35 32 31 28 29 26 27 28 30 31 32 32 27 23 18 15 18 23 25 23 24 17 13 12 6 14 19 22 26 28 31 30 27 30
47 46 44 44 46 47 46 42 39 38 36 36 32 33 34 33 32 30 29 25 17 15 15 14 16 20 23 24 24 20 13 17 17 15 22 21 28 33 28 23 23 23 24
55 54 48 51 56 48 45 42 40 40 39 38 38 38 34 31 31 25 20 17 12 7 13 15 23 30 33 31 26 17 9 10 16 26 18 25 37 28 24 25 25 24 28
60 54 55 54 61 58 53 45 47 46 44 43 43 37 30 26 17 18 11 2 4 10 20 29 33 34 30 26 20 12 8 6 24 15 17 23 34 27 26 28 21 28 34
64 60 60 60 59 58 55 56 56 54 55 50 40 36 26 17 13 9 10 11 15 30 35 42 35 29 26 22 18 14 10 13 12 14 17 24 32 31 21 29 23 41 28
60 63 62 59 61 60 60 63 64 62 57 51 34 23 24 20 13 17 23 28 32 38 32 24 26 27 28 26 23 15 11 11 13 16 27 42 32 29 25 34 32 41 39
60 56 52 55 58 59 56 58 52 48 36 38 31 20 11 11 16 21 27 23 17 19 20 21 22 23 23 22 20 20 19 17 20 21 28 40 40 31 26 36 33 41 56
Wind_Direction_850mb
160 160 153 153 149 147 147 153 152 149 152 140 117 63 51 61 67 74 80 84 82 78 79 80 79 76 74 75 75 74 72 68 63 62 55 50 44 39 37 34 30 27 22
151 151 150 158 151 150 163 168 163 158 152 140 111 54 45 57 77 86 87 86 83 81 79 78 75 73 71 69 68 62 58 56 53 52 51 43 36 32 27 22 21 18 16
154 152 151 155 150 139 157 167 160 151 151 139 108 60 45 64 82 88 87 85 82 76 71 68 66 64 63 62 64 61 52 41 37 36 33 31 29 23 15 9 6 5 2
159 156 156 157 150 122 125 147 151 149 149 138 109 56 55 78 94 90 85 80 76 73 70 68 65 63 62 61 58 55 47 41 27 25 24 26 20 16 11 4 354 350 350
162 160 156 157 153 134 126 138 144 148 146 132 59 40 66 81 86 87 79 78 76 75 71 65 62 60 59 56 54 58 45 36 26 23 21 37 38 25 22 16 8 356 343
166 164 159 160 159 149 133 134 142 146 149 142 32 53 93 92 88 89 84 82 77 71 69 68 67 65 59 55 51 53 48 39 38 38 44 45 40 29 19 13 10 6 359
171 168 164 163 167 164 159 157 161 169 186 198 152 124 113 105 98 92 90 87 85 84 80 77 74 68 63 61 60 59 53 46 39 39 38 34 30 26 18 8 3 359 1
180 173 171 168 170 174 173 174 180 186 187 172 145 133 120 112 106 102 97 93 90 85 79 74 68 59 51 48 45 41 36 31 22 14 14 13 12 8 6 358 356 353 348
180 176 175 172 173 177 179 183 186 180 170 157 148 139 133 127 118 108 101 97 91 82 74 67 58 48 41 38 32 25 14 7 7 3 357 353 351 351 352 347 346 346 345
180 180 178 176 176 179 182 181 179 171 164 157 150 146 137 131 121 114 110 105 97 80 65 57 48 39 34 27 18 1 355 352 350 349 348 346 344 339 338 341 339 338 339
183 185 183 184 185 187 182 174 167 164 162 158 155 143 137 133 129 125 120 108 98 73 59 49 33 19 10 0 349 343 340 341 332 331 325 328 329 332 332 337 334 331 329
186 186 189 190 194 190 180 171 166 163 160 159 155 149 147 146 142 132 116 93 78 58 34 7 357 347 342 339 334 332 331 329 321 318 324 308 315 317 326 326 314 319 324
186 185 190 193 191 186 179 175 169 165 163 160 159 157 159 158 153 142 126 94 38 13 354 338 333 331 333 328 327 331 326 319 319 322 332 314 305 312 315 322 317 319 320
181 184 183 186 186 178 180 177 174 170 171 170 164 166 172 169 164 158 140 24 354 339 328 325 322 326 327 322 322 329 328 323 320 317 319 316 306 302 316 321 329 326 324
181 182 184 183 182 178 176 179 179 173 169 167 169 173 173 180 186 196 246 310 317 320 316 309 313 321 324 328 331 334 326 322 323 319 319 311 295 304 318 328 327 339 348
187 184 183 182 180 183 180 179 174 169 174 175 177 180 193 201 208 233 257 284 288 297 301 307 314 318 324 330 335 337 327 325 325 318 326 324 315 313 306 312 318 318 323
191 191 196 189 184 182 178 176 186 184 182 191 195 197 201 202 213 238 265 278 287 289 293 305 310 313 320 327 336 334 330 330 340 323 311 305 293 295 299 314 319 318 318
195 199 201 196 193 186 175 190 194 199 205 199 197 202 210 224 246 264 274 287 288 291 301 308 309 309 313 319 334 334 327 323 322 321 311 297 298 306 312 318 319 318 323
195 194 199 201 199 190 193 199 204 202 201 200 207 218 228 241 257 271 281 292 293 288 292 291 294 293 290 298 318 330 316 302 294 303 300 309 316 317 322 328 327 324 313
200 201 197 201 197 194 201 203 206 208 214 212 222 227 237 248 260 275 282 286 284 277 272 270 276 292 303 314 324 327 305 287 270 358 351 339 333 339 332 327 329 333 329
205 205 206 206 202 204 208 210 215 221 219 223 228 241 245 253 263 263 269 271 273 268 265 284 309 312 311 322 333 334 303 288 247 317 337 343 339 343 342 341 343 348 352
204 204 207 207 203 207 214 218 218 221 226 230 235 239 241 245 247 242 243 236 234 289 321 328 336 339 338 340 342 336 297 280 243 304 309 338 348 350 349 355 354 356 351
204 201 204 200 202 207 215 214 216 224 228 227 229 223 217 214 197 201 181 119 36 354 343 344 340 339 345 353 355 358 314 294 309 288 285 333 349 352 352 355 351 350 338
201 204 204 209 203 205 213 220 222 226 224 220 209 203 190 163 124 91 88 13 6 335 329 323 325 337 345 354 1 1 340 311 326 316 308 333 358 355 354 353 336 341 338
202 204 204 205 208 209 218 219 221 222 213 200 184 125 115 111 81 353 325 305 299 306 320 340 346 345 348 354 3 3 343 325 323 314 320 333 354 360 346 350 343 344 343
185 192 195 203 206 207 212 209 201 195 156 138 129 146 175 228 261 281 299 313 334 341 346 344 348 348 349 354 359 3 6 2 346 348 334 335 343 356 346 344 341 342 341